EZY9EM EGKK-LOWI

Flight info

Callsign EZY9EM
Flight time 1h 16m
Altitude 37000
Route DVR L9 KONAN DCT KOK UL607 FERDI DCT REMBA DCT LIRSU DCT KRH DCT TEDGO/N0454F350 DCT BATUB/N0451F310 M738 MADEB MADEB1B
Aircraft A320/M-SDE3FGHIRWY/LB1

Departure

Time 2026-05-07 13:38
Airport London Gatwick Airport (EGKK)

Arrival

Time 2026-05-07 14:54
Airport Innsbruck Airport (LOWI)
Time Latitude Longitude Altitude Speed Heading
2026-05-07 13:11 51.15591 -0.17621 204 ft 0 kts 347°
2026-05-07 13:23 51.15570 -0.17613 208 ft 4 kts 347°
2026-05-07 13:24 51.15548 -0.17606 212 ft 3 kts 347°
2026-05-07 13:24 51.15530 -0.17591 211 ft 4 kts 279°
2026-05-07 13:24 51.15532 -0.17553 210 ft 4 kts 257°
2026-05-07 13:24 51.15534 -0.17543 210 ft 0 kts 257°
2026-05-07 13:28 51.15528 -0.17580 216 ft 9 kts 258°
2026-05-07 13:28 51.15512 -0.17701 205 ft 14 kts 257°
2026-05-07 13:29 51.15492 -0.17841 204 ft 11 kts 257°
2026-05-07 13:29 51.15477 -0.17949 209 ft 9 kts 257°
2026-05-07 13:29 51.15465 -0.18041 204 ft 8 kts 257°
2026-05-07 13:29 51.15454 -0.18120 206 ft 8 kts 258°
2026-05-07 13:30 51.15436 -0.18248 204 ft 15 kts 251°
2026-05-07 13:30 51.15342 -0.18260 204 ft 15 kts 166°
2026-05-07 13:30 51.15232 -0.18222 206 ft 17 kts 168°
2026-05-07 13:30 51.15164 -0.18198 209 ft 0 kts 168°
2026-05-07 13:31 51.15181 -0.18204 215 ft 8 kts 168°
2026-05-07 13:31 51.15212 -0.18215 204 ft 1 kts 175°
2026-05-07 13:31 51.15191 -0.18284 210 ft 12 kts 256°
2026-05-07 13:31 51.15173 -0.18419 203 ft 13 kts 258°
2026-05-07 13:32 51.15155 -0.18554 212 ft 12 kts 258°
2026-05-07 13:32 51.15138 -0.18672 207 ft 10 kts 257°
2026-05-07 13:32 51.15120 -0.18805 206 ft 17 kts 257°
2026-05-07 13:32 51.15093 -0.18999 208 ft 17 kts 257°
2026-05-07 13:33 51.15069 -0.19175 209 ft 15 kts 257°
2026-05-07 13:33 51.15048 -0.19329 204 ft 13 kts 257°
2026-05-07 13:33 51.15029 -0.19462 204 ft 11 kts 258°
2026-05-07 13:33 51.15014 -0.19578 214 ft 11 kts 258°
2026-05-07 13:34 51.14990 -0.19741 204 ft 17 kts 257°
2026-05-07 13:34 51.14944 -0.20085 203 ft 14 kts 258°
2026-05-07 13:34 51.14920 -0.20258 203 ft 19 kts 257°
2026-05-07 13:35 51.14891 -0.20463 206 ft 19 kts 257°
2026-05-07 13:35 51.14864 -0.20665 203 ft 18 kts 258°
2026-05-07 13:35 51.14838 -0.20857 208 ft 17 kts 258°
2026-05-07 13:35 51.14814 -0.21027 207 ft 15 kts 257°
2026-05-07 13:36 51.14788 -0.21173 210 ft 13 kts 248°
2026-05-07 13:36 51.14763 -0.21320 206 ft 15 kts 259°
2026-05-07 13:36 51.14697 -0.21397 205 ft 14 kts 163°
2026-05-07 13:36 51.14614 -0.21325 205 ft 14 kts 166°
2026-05-07 13:37 51.14526 -0.21235 211 ft 17 kts 117°
2026-05-07 13:37 51.14532 -0.21081 207 ft 0 kts 77°
2026-05-07 13:37 51.14538 -0.21034 204 ft 22 kts 78°
2026-05-07 13:37 51.14624 -0.20396 206 ft 94 kts 77°
2026-05-07 13:38 51.14809 -0.19068 209 ft 149 kts 77°
2026-05-07 13:38 51.15059 -0.17294 523 ft 168 kts 78°
2026-05-07 13:38 51.15353 -0.15492 1286 ft 169 kts 75°
2026-05-07 13:38 51.15650 -0.13618 1788 ft 184 kts 79°
2026-05-07 13:39 51.15927 -0.11499 2127 ft 206 kts 80°
2026-05-07 13:39 51.16225 -0.09145 2444 ft 229 kts 79°
2026-05-07 13:39 51.16560 -0.06533 2864 ft 252 kts 78°
2026-05-07 13:39 51.16882 -0.03730 3609 ft 261 kts 86°
2026-05-07 13:40 51.16858 -0.00815 4462 ft 265 kts 92°
2026-05-07 13:40 51.16800 0.02133 5274 ft 268 kts 92°
2026-05-07 13:40 51.16742 0.05132 5748 ft 272 kts 92°
2026-05-07 13:40 51.16684 0.08129 6051 ft 269 kts 92°
2026-05-07 13:41 51.16628 0.11124 6487 ft 271 kts 92°
2026-05-07 13:41 51.16573 0.14109 6980 ft 274 kts 92°
2026-05-07 13:41 51.16529 0.17154 7515 ft 276 kts 91°
2026-05-07 13:41 51.16523 0.20230 8045 ft 279 kts 91°
2026-05-07 13:42 51.16533 0.23332 8581 ft 282 kts 91°
2026-05-07 13:42 51.16548 0.26465 9129 ft 284 kts 91°
2026-05-07 13:42 51.16563 0.29624 9692 ft 287 kts 91°
2026-05-07 13:42 51.16576 0.32829 10212 ft 289 kts 91°
2026-05-07 13:43 51.16588 0.36050 10732 ft 292 kts 91°
2026-05-07 13:43 51.16593 0.39304 11261 ft 294 kts 91°
2026-05-07 13:43 51.16596 0.42573 11796 ft 296 kts 91°
2026-05-07 13:43 51.16598 0.45867 12344 ft 299 kts 91°
2026-05-07 13:44 51.16598 0.49204 13014 ft 303 kts 91°
2026-05-07 13:44 51.16599 0.52683 13252 ft 325 kts 91°
2026-05-07 13:44 51.16597 0.56403 13395 ft 346 kts 91°
2026-05-07 13:44 51.16592 0.60357 13593 ft 365 kts 91°
2026-05-07 13:45 51.16584 0.64445 14074 ft 373 kts 91°
2026-05-07 13:45 51.16577 0.68600 14630 ft 378 kts 91°
2026-05-07 13:45 51.16570 0.72809 15207 ft 382 kts 91°
2026-05-07 13:45 51.16561 0.77056 15800 ft 386 kts 91°
2026-05-07 13:46 51.16548 0.81354 16384 ft 390 kts 91°
2026-05-07 13:46 51.16533 0.85642 16968 ft 393 kts 91°
2026-05-07 13:46 51.16519 0.90019 17551 ft 397 kts 91°
2026-05-07 13:46 51.16506 0.94453 18155 ft 402 kts 91°
2026-05-07 13:47 51.16489 0.98919 18668 ft 405 kts 91°
2026-05-07 13:47 51.16469 1.03429 19172 ft 409 kts 91°
2026-05-07 13:47 51.16448 1.07977 19673 ft 412 kts 91°
2026-05-07 13:47 51.16424 1.12557 20165 ft 415 kts 91°
2026-05-07 13:48 51.16397 1.17168 20655 ft 418 kts 91°
2026-05-07 13:48 51.16366 1.21813 21133 ft 421 kts 91°
2026-05-07 13:48 51.16334 1.26497 21593 ft 424 kts 91°
2026-05-07 13:48 51.16297 1.31211 22039 ft 427 kts 91°
2026-05-07 13:49 51.16257 1.35957 22478 ft 430 kts 92°
2026-05-07 13:49 51.16145 1.40733 22903 ft 432 kts 94°
2026-05-07 13:49 51.15941 1.45525 23318 ft 435 kts 95°
2026-05-07 13:49 51.15681 1.50348 23712 ft 438 kts 96°
2026-05-07 13:50 51.15398 1.55184 24044 ft 440 kts 96°
2026-05-07 13:50 51.15117 1.60051 24380 ft 442 kts 96°
2026-05-07 13:50 51.14849 1.64950 24711 ft 444 kts 96°
2026-05-07 13:50 51.14595 1.69861 25037 ft 446 kts 95°
2026-05-07 13:51 51.14348 1.74803 25356 ft 448 kts 95°
2026-05-07 13:51 51.14104 1.79765 25669 ft 450 kts 95°
2026-05-07 13:51 51.13860 1.84756 25978 ft 452 kts 95°
2026-05-07 13:51 51.13611 1.89756 26276 ft 454 kts 95°
2026-05-07 13:52 51.13356 1.94723 26567 ft 456 kts 96°
2026-05-07 13:52 51.13089 1.99832 26857 ft 458 kts 96°
2026-05-07 13:52 51.12826 2.04831 27135 ft 460 kts 96°
2026-05-07 13:52 51.12556 2.09915 27405 ft 462 kts 96°
2026-05-07 13:53 51.12285 2.15014 27670 ft 464 kts 96°
2026-05-07 13:53 51.12007 2.20141 27927 ft 465 kts 96°
2026-05-07 13:53 51.11725 2.25280 28176 ft 467 kts 96°
2026-05-07 13:53 51.11533 2.28771 28335 ft 468 kts 96°
2026-05-07 13:54 51.11251 2.33940 28568 ft 470 kts 96°
2026-05-07 13:54 51.10958 2.39196 28806 ft 471 kts 96°
2026-05-07 13:54 51.10667 2.44380 29136 ft 470 kts 96°
2026-05-07 13:54 51.10376 2.49553 29463 ft 469 kts 96°
2026-05-07 13:55 51.10084 2.54729 29792 ft 468 kts 96°
2026-05-07 13:55 51.09788 2.59890 30124 ft 468 kts 96°
2026-05-07 13:55 51.09401 2.65012 30401 ft 466 kts 102°
2026-05-07 13:55 51.08609 2.70012 30669 ft 465 kts 108°
2026-05-07 13:56 51.07714 2.74884 30944 ft 464 kts 107°
2026-05-07 13:56 51.06813 2.79810 31209 ft 464 kts 107°
2026-05-07 13:56 51.05915 2.84737 31488 ft 463 kts 107°
2026-05-07 13:56 51.05022 2.89657 31763 ft 463 kts 107°
2026-05-07 13:57 51.04134 2.94560 32031 ft 462 kts 107°
2026-05-07 13:57 51.03242 2.99474 32305 ft 462 kts 107°
2026-05-07 13:57 51.02346 3.04375 32577 ft 462 kts 107°
2026-05-07 13:57 51.01447 3.09267 32851 ft 461 kts 108°
2026-05-07 13:58 51.00547 3.14150 33120 ft 461 kts 108°
2026-05-07 13:58 50.99645 3.19041 33392 ft 460 kts 108°
2026-05-07 13:58 50.98731 3.23978 33665 ft 460 kts 108°
2026-05-07 13:58 50.97826 3.28848 33937 ft 460 kts 108°
2026-05-07 13:59 50.96931 3.33653 34166 ft 459 kts 108°
2026-05-07 13:59 50.96007 3.38581 34381 ft 459 kts 108°
2026-05-07 13:59 50.95095 3.43439 34603 ft 459 kts 108°
2026-05-07 13:59 50.94181 3.48297 34805 ft 459 kts 108°
2026-05-07 14:00 50.93264 3.53157 35022 ft 459 kts 108°
2026-05-07 14:00 50.92344 3.58001 35219 ft 459 kts 108°
2026-05-07 14:00 50.91425 3.62847 35420 ft 459 kts 108°
2026-05-07 14:00 50.90507 3.67696 35614 ft 459 kts 108°
2026-05-07 14:01 50.89590 3.72538 35799 ft 459 kts 108°
2026-05-07 14:01 50.88671 3.77371 35976 ft 459 kts 108°
2026-05-07 14:01 50.87747 3.82201 36155 ft 458 kts 108°
2026-05-07 14:01 50.86817 3.87036 36332 ft 458 kts 108°
2026-05-07 14:02 50.85890 3.91855 36498 ft 458 kts 108°
2026-05-07 14:02 50.84957 3.96681 36669 ft 458 kts 108°
2026-05-07 14:02 50.84010 4.01570 36829 ft 458 kts 108°
2026-05-07 14:02 50.83026 4.06643 37016 ft 457 kts 108°
2026-05-07 14:03 50.82090 4.11462 37079 ft 460 kts 108°
2026-05-07 14:03 50.80202 4.21142 37083 ft 461 kts 108°
2026-05-07 14:04 50.78270 4.31046 37082 ft 462 kts 109°
2026-05-07 14:04 50.76373 4.40684 37083 ft 462 kts 109°
2026-05-07 14:05 50.74456 4.50377 37083 ft 462 kts 109°
2026-05-07 14:05 50.72528 4.60066 37084 ft 462 kts 109°
2026-05-07 14:06 50.70595 4.69745 37071 ft 462 kts 109°
2026-05-07 14:06 50.68650 4.79420 37084 ft 462 kts 109°
2026-05-07 14:07 50.66694 4.89085 37080 ft 462 kts 109°
2026-05-07 14:07 50.64137 4.98336 37081 ft 460 kts 117°
2026-05-07 14:08 50.61391 5.07457 37074 ft 461 kts 117°
2026-05-07 14:08 50.58652 5.16572 37080 ft 461 kts 117°
2026-05-07 14:09 50.55890 5.25706 37073 ft 461 kts 117°
2026-05-07 14:09 50.53119 5.34812 37076 ft 461 kts 117°
2026-05-07 14:10 50.50360 5.43842 37065 ft 462 kts 117°
2026-05-07 14:10 50.47577 5.52935 37069 ft 462 kts 117°
2026-05-07 14:11 50.44776 5.62011 37059 ft 462 kts 117°
2026-05-07 14:11 50.41971 5.71085 37067 ft 462 kts 117°
2026-05-07 14:12 50.39164 5.80161 37057 ft 462 kts 117°
2026-05-07 14:12 50.36352 5.89220 37062 ft 462 kts 117°
2026-05-07 14:13 50.33528 5.98264 37055 ft 462 kts 117°
2026-05-07 14:13 50.30696 6.07307 37054 ft 462 kts 117°
2026-05-07 14:14 50.27860 6.16343 37049 ft 462 kts 117°
2026-05-07 14:14 50.25017 6.25362 37044 ft 463 kts 117°
2026-05-07 14:15 50.22160 6.34379 37045 ft 463 kts 117°
2026-05-07 14:15 50.19268 6.43371 37033 ft 463 kts 121°
2026-05-07 14:16 50.15464 6.51320 37037 ft 460 kts 131°
2026-05-07 14:16 50.11328 6.58950 37049 ft 461 kts 131°
2026-05-07 14:17 50.07886 6.65301 37052 ft 461 kts 131°
2026-05-07 14:17 50.03763 6.72897 37055 ft 461 kts 131°
2026-05-07 14:18 49.99653 6.80467 37058 ft 461 kts 131°
2026-05-07 14:18 49.95508 6.88058 37045 ft 461 kts 131°
2026-05-07 14:19 49.91377 6.95613 37048 ft 462 kts 131°
2026-05-07 14:19 49.87223 7.03186 37049 ft 462 kts 131°
2026-05-07 14:20 49.83052 7.10760 37054 ft 462 kts 132°
2026-05-07 14:20 49.78876 7.18322 37053 ft 461 kts 132°
2026-05-07 14:21 49.74700 7.25859 37056 ft 461 kts 132°
2026-05-07 14:21 49.70518 7.33384 37044 ft 462 kts 132°
2026-05-07 14:22 49.66335 7.40897 37044 ft 462 kts 132°
2026-05-07 14:22 49.62132 7.48435 37046 ft 462 kts 132°
2026-05-07 14:23 49.57922 7.55936 37048 ft 463 kts 132°
2026-05-07 14:23 49.53702 7.63427 37054 ft 463 kts 132°
2026-05-07 14:24 49.49493 7.70918 37049 ft 463 kts 132°
2026-05-07 14:24 49.45269 7.78421 37045 ft 464 kts 133°
2026-05-07 14:25 49.41029 7.85902 37050 ft 464 kts 133°
2026-05-07 14:25 49.36783 7.93362 37052 ft 464 kts 133°
2026-05-07 14:26 49.32531 8.00813 37055 ft 464 kts 133°
2026-05-07 14:26 49.28270 8.08267 37047 ft 464 kts 133°
2026-05-07 14:27 49.24013 8.15702 37051 ft 465 kts 133°
2026-05-07 14:27 49.19746 8.23141 37040 ft 465 kts 133°
2026-05-07 14:28 49.15467 8.30574 37037 ft 465 kts 133°
2026-05-07 14:28 49.11179 8.37978 37037 ft 465 kts 133°
2026-05-07 14:29 49.06886 8.45370 37037 ft 465 kts 133°
2026-05-07 14:29 49.02586 8.52764 37047 ft 466 kts 133°
2026-05-07 14:30 48.98285 8.60164 37050 ft 467 kts 133°
2026-05-07 14:30 48.94094 8.67707 37037 ft 466 kts 131°
2026-05-07 14:31 48.89974 8.75329 37039 ft 467 kts 131°
2026-05-07 14:31 48.85820 8.82939 37028 ft 467 kts 132°
2026-05-07 14:32 48.81638 8.90495 37041 ft 468 kts 132°
2026-05-07 14:32 48.77412 8.98066 37036 ft 468 kts 132°
2026-05-07 14:33 48.73210 9.05607 37040 ft 468 kts 132°
2026-05-07 14:33 48.69005 9.13148 37033 ft 468 kts 132°
2026-05-07 14:34 48.64768 9.20635 37035 ft 468 kts 136°
2026-05-07 14:34 48.59662 9.26579 37035 ft 460 kts 155°
2026-05-07 14:35 48.53777 9.30075 36789 ft 457 kts 164°
2026-05-07 14:35 48.50765 9.31602 36530 ft 457 kts 164°
2026-05-07 14:35 48.47743 9.33137 36273 ft 457 kts 164°
2026-05-07 14:35 48.44733 9.34674 36028 ft 457 kts 163°
2026-05-07 14:36 48.41717 9.36222 35781 ft 457 kts 163°
2026-05-07 14:36 48.38706 9.37768 35548 ft 458 kts 163°
2026-05-07 14:36 48.35688 9.39312 35183 ft 458 kts 163°
2026-05-07 14:36 48.32669 9.40847 34831 ft 458 kts 163°
2026-05-07 14:37 48.29645 9.42379 34477 ft 458 kts 163°
2026-05-07 14:37 48.23593 9.45445 33723 ft 459 kts 164°
2026-05-07 14:37 48.20560 9.46980 33309 ft 460 kts 163°
2026-05-07 14:38 48.17526 9.48515 32898 ft 460 kts 163°
2026-05-07 14:38 48.14493 9.50050 32490 ft 460 kts 163°
2026-05-07 14:38 48.11494 9.51566 32099 ft 460 kts 163°
2026-05-07 14:38 48.08459 9.53099 31714 ft 460 kts 163°
2026-05-07 14:39 48.05424 9.54628 31328 ft 460 kts 163°
2026-05-07 14:39 48.02440 9.56400 30939 ft 462 kts 155°
2026-05-07 14:39 47.99629 9.58861 30560 ft 463 kts 146°
2026-05-07 14:39 47.97019 9.61694 30193 ft 464 kts 145°
2026-05-07 14:40 47.94411 9.64528 29768 ft 464 kts 145°
2026-05-07 14:40 47.91801 9.67355 29337 ft 464 kts 145°
2026-05-07 14:40 47.89216 9.70146 28918 ft 465 kts 145°
2026-05-07 14:40 47.86582 9.72980 28495 ft 466 kts 145°
2026-05-07 14:41 47.84111 9.76192 28080 ft 469 kts 136°
2026-05-07 14:41 47.81791 9.79606 27672 ft 471 kts 136°
2026-05-07 14:41 47.79460 9.83046 27253 ft 471 kts 136°
2026-05-07 14:41 47.77166 9.86437 26851 ft 469 kts 136°
2026-05-07 14:42 47.74830 9.89891 26458 ft 467 kts 136°
2026-05-07 14:42 47.72528 9.93286 26075 ft 464 kts 136°
2026-05-07 14:42 47.70239 9.96652 25631 ft 462 kts 136°
2026-05-07 14:42 47.67960 9.99991 25092 ft 459 kts 137°
2026-05-07 14:43 47.65696 10.03304 24531 ft 455 kts 137°
2026-05-07 14:43 47.63452 10.06587 23981 ft 452 kts 137°
2026-05-07 14:43 47.61246 10.09809 23420 ft 449 kts 137°
2026-05-07 14:43 47.59023 10.13052 22785 ft 447 kts 137°
2026-05-07 14:44 47.56814 10.16271 22161 ft 443 kts 137°
2026-05-07 14:44 47.54622 10.19458 21541 ft 440 kts 137°
2026-05-07 14:44 47.52438 10.22623 20936 ft 437 kts 137°
2026-05-07 14:44 47.50277 10.25752 20349 ft 433 kts 137°
2026-05-07 14:45 47.48135 10.28859 19774 ft 430 kts 137°
2026-05-07 14:45 47.46009 10.31940 19212 ft 426 kts 136°
2026-05-07 14:45 47.43896 10.35004 18657 ft 423 kts 136°
2026-05-07 14:45 47.41808 10.38025 18081 ft 420 kts 137°
2026-05-07 14:46 47.39713 10.41049 17454 ft 418 kts 137°
2026-05-07 14:46 47.37636 10.44044 16844 ft 416 kts 137°
2026-05-07 14:46 47.35568 10.47022 16247 ft 416 kts 137°
2026-05-07 14:46 47.33499 10.49992 15657 ft 413 kts 137°
2026-05-07 14:47 47.31472 10.52903 15071 ft 410 kts 137°
2026-05-07 14:47 47.29623 10.56058 14499 ft 408 kts 122°
2026-05-07 14:47 47.28674 10.59952 13946 ft 405 kts 98°
2026-05-07 14:47 47.28537 10.64083 13346 ft 402 kts 89°
2026-05-07 14:48 47.28706 10.68173 12725 ft 398 kts 84°
2026-05-07 14:48 47.29028 10.72199 12126 ft 393 kts 83°
2026-05-07 14:48 47.29383 10.76167 11538 ft 388 kts 83°
2026-05-07 14:48 47.29703 10.80101 10968 ft 384 kts 84°
2026-05-07 14:49 47.29967 10.83989 10397 ft 379 kts 85°
2026-05-07 14:49 47.30183 10.87840 9834 ft 375 kts 85°
2026-05-07 14:49 47.30368 10.91636 9214 ft 365 kts 85°
2026-05-07 14:49 47.30530 10.95271 8608 ft 346 kts 86°
2026-05-07 14:50 47.30677 10.98730 8030 ft 331 kts 86°
2026-05-07 14:50 47.30823 11.02043 7482 ft 317 kts 85°
2026-05-07 14:50 47.30961 11.05216 6987 ft 304 kts 88°
2026-05-07 14:50 47.30674 11.08216 6493 ft 291 kts 110°
2026-05-07 14:51 47.29844 11.10875 5956 ft 279 kts 115°
2026-05-07 14:51 47.29038 11.13317 5352 ft 258 kts 115°
2026-05-07 14:51 47.28281 11.15608 4855 ft 239 kts 115°
2026-05-07 14:51 47.27570 11.17758 4494 ft 229 kts 115°
2026-05-07 14:52 47.26893 11.19805 4127 ft 215 kts 115°
2026-05-07 14:52 47.26265 11.21710 3830 ft 198 kts 115°
2026-05-07 14:52 47.25682 11.23474 3486 ft 184 kts 115°
2026-05-07 14:52 47.25245 11.25128 3233 ft 166 kts 100°
2026-05-07 14:53 47.25170 11.26221 3050 ft 158 kts 88°
2026-05-07 14:53 47.25311 11.27769 2796 ft 149 kts 78°
2026-05-07 14:53 47.25510 11.29241 2526 ft 145 kts 83°
2026-05-07 14:53 47.25622 11.30683 2327 ft 139 kts 82°
2026-05-07 14:54 47.25776 11.32078 2104 ft 138 kts 81°
2026-05-07 14:54 47.25921 11.33460 1901 ft 133 kts 81°
2026-05-07 14:54 47.26042 11.34596 1901 ft 78 kts 81°
2026-05-07 14:54 47.26090 11.35049 1904 ft 32 kts 81°
2026-05-07 14:55 47.26104 11.35229 1898 ft 9 kts 108°
2026-05-07 14:55 47.26048 11.35262 1899 ft 9 kts 172°
2026-05-07 14:55 47.25995 11.35273 1900 ft 7 kts 172°
2026-05-07 14:55 47.25952 11.35283 1893 ft 5 kts 171°
2026-05-07 14:56 47.25920 11.35290 1904 ft 4 kts 172°
2026-05-07 14:56 47.25897 11.35248 1899 ft 12 kts 255°
2026-05-07 14:56 47.25893 11.35187 1898 ft 0 kts 263°
2026-05-07 14:56 47.25892 11.35177 1894 ft 4 kts 261°
2026-05-07 14:57 47.25880 11.35170 1896 ft 4 kts 184°
2026-05-07 14:57 47.25842 11.35175 1897 ft 2 kts 171°
2026-05-07 14:57 47.25835 11.35177 1898 ft 0 kts 171°